This is the latest recevied weather packets stored in our database for station/object SP9TKN-1. If no packets are shown the sender has not sent any weather packets the latest 10 day(s).
| Time | Temp. | Humidity | Pressure | Rain* | Wind** | Luminosity | Snow |
|---|---|---|---|---|---|---|---|
| 1777889772 | 22.22° C | 26% | 1015.9 hPa | - | - | - | - |
| 1777888872 | 21.67° C | 27% | 1015.9 hPa | - | - | - | - |
| 1777887970 | 22.22° C | 26% | 1016 hPa | - | - | - | - |
| 1777886170 | 21.11° C | 26% | 1016.3 hPa | - | - | - | - |
| 1777885272 | 20.56° C | 26% | 1016.5 hPa | - | - | - | - |
| 1777884781 | 20.56° C | 27% | 1016.5 hPa | - | - | - | - |
| 1777884371 | 20.56° C | 27% | 1016.5 hPa | - | - | - | - |
| 1777882570 | 19.44° C | 28% | 1016.7 hPa | - | - | - | - |
| 1777881671 | 18.89° C | 29% | 1016.6 hPa | - | - | - | - |
| 1777880771 | 18.33° C | 30% | 1016.6 hPa | - | - | - | - |
| 1777879874 | 17.78° C | 32% | 1016.6 hPa | - | - | - | - |
| 1777878971 | 17.22° C | 34% | 1016.4 hPa | - | - | - | - |
| 1777878073 | 16.67° C | 35% | 1016.5 hPa | - | - | - | - |
| 1777877172 | 16.11° C | 36% | 1016.4 hPa | - | - | - | - |
| 1777876271 | 15.56° C | 36% | 1016.6 hPa | - | - | - | - |
| 1777875372 | 15.56° C | 38% | 1016.6 hPa | - | - | - | - |
| 1777874473 | 15° C | 39% | 1016.4 hPa | - | - | - | - |
| 1777873572 | 14.44° C | 39% | 1016.5 hPa | - | - | - | - |
| 1777872670 | 13.89° C | 40% | 1016.5 hPa | - | - | - | - |
| 1777871770 | 13.89° C | 40% | 1016.6 hPa | - | - | - | - |
| 1777870870 | 13.33° C | 40% | 1016.5 hPa | - | - | - | - |
| 1777869970 | 12.78° C | 41% | 1016.4 hPa | - | - | - | - |
| 1777869070 | 12.22° C | 42% | 1016.4 hPa | - | - | - | - |
| 1777868170 | 12.22° C | 43% | 1016.4 hPa | - | - | - | - |
| 1777867270 | 12.22° C | 42% | 1016.4 hPa | - | - | - | - |
* Rain since midnight (hover to see other rain measurements)
** Current wind speed in m/s (hover to see current wind gust speed)